Regional Weather Roundup
Issued by NWS

Home | Current Version | Previous Version | Text Only | Print | Product List | Glossary On
Versions: 1 2 3 4 5 6 7 8 9 10 11 12 13 14 15 16 17 18 19 20 21 22 23 24 25 26 27 28 29 30 31 32 33 34 35 36 37 38 39 40 41 42 43 44 45 46 47 48 49 50
000
ASUS44 KOUN 201010
RWROK

WEATHER ROUNDUP FOR OKLAHOMA
NATIONAL WEATHER SERVICE NORMAN OK
500 AM CDT FRI APR 20 2018

NOTE: "FAIR" INDICATES FEW OR NO CLOUDS BELOW 12,000 FEET WITH NO
      SIGNIFICANT WEATHER AND/OR OBSTRUCTIONS TO VISIBILITY.

OKZ001>007-009>012-014-015-017-201100-
NORTHWEST OKLAHOMA AND THE PANHANDLE

CITY           SKY/WX    TMP DP  RH WIND       PRES   REMARKS
GAGE           CLOUDY    47  32  56 SE13      30.23F
GUYMON         PTCLDY    45  29  53 SE10      30.16S
ENID/WOODRING  PTCLDY    41  34  75 E7        30.31S
$$

OKZ016-021>023-033>039-044-045-201100-
SOUTHWEST OKLAHOMA

CITY           SKY/WX    TMP DP  RH WIND       PRES   REMARKS
LAWTON/REGL    CLEAR     43  34  70 NE8       30.26F
LAWTON/FT SILL CLEAR     43  37  80 NE7       30.25F
FREDERICK      CLOUDY    44  32  62 E13       30.21F
CLINTON        CLOUDY    43  33  68 E12       30.26F
HOBART         CLEAR     40  32  73 E9        30.25F WCI  34
ALTUS AFB      CLEAR     45  32  59 E12       30.23F
$$

OKZ018>020-024>031-201100-
CENTRAL OKLAHOMA

CITY           SKY/WX    TMP DP  RH WIND       PRES   REMARKS
OKLAHOMA CITY  CLOUDY    40  32  73 E8        30.29F WCI  34
OKC/WILEY POST CLOUDY    46  33  60 E8        30.30S
OKC/TINKER AFB CLOUDY    42  32  67 E6        30.29S
STILLWATER     PTCLDY    41  32  70 E6        30.33R
GUTHRIE        CLOUDY    41  33  73 CALM      30.31R
$$

OKZ008-013-054>072-201100-
NORTHEAST OKLAHOMA

CITY           SKY/WX    TMP DP  RH WIND       PRES   REMARKS
TULSA          MOCLDY    44  34  67 CALM      30.34R
TULSA/JONES    CLEAR     43  33  68 CALM      30.34R
PONCA CITY     MOCLDY    46  33  60 E8        30.34R
BARTLESVILLE   CLEAR     37  30  75 CALM      30.37S
MUSKOGEE       CLEAR     44  36  73 SE9       30.36R
$$

OKZ032-040>043-046>053-073>077-201100-
SOUTH CENTRAL/SOUTHEAST OKLAHOMA

CITY           SKY/WX    TMP DP  RH WIND       PRES   REMARKS
ARDMORE/DWNTWN CLEAR     46  34  61 E7        30.28F
MCALESTER      CLOUDY    42  37  82 E3        30.33R
$$





USA.gov is the U.S. government's official web portal to all federal, state and local government web resources and services.